Wind_Speed
43 41 40 40 39 33 32 31 28 28 28 25 23 22 20 18 18 18 18 17 17 17 18 19 19 19 21 22 23 24 25 27 27 27 28 28 28 29 30 31 31 32 32
46 43 42 40 37 35 35 35 32 32 30 29 25 24 23 23 22 22 22 22 21 21 21 21 22 24 25 27 26 27 28 28 28 27 28 28 28 28 29 30 31 32 32
49 47 46 43 41 39 39 36 35 35 32 30 29 27 26 27 25 26 26 27 27 27 27 25 26 27 28 27 28 30 29 29 28 28 27 28 28 28 29 29 30 30 31
51 49 48 46 44 44 41 39 39 37 34 32 32 30 29 31 29 29 30 30 30 28 27 25 24 24 25 26 28 29 29 29 29 29 28 28 28 29 29 30 30 32 33
54 53 51 49 47 47 45 44 42 41 39 36 34 34 32 32 33 32 30 29 27 24 23 20 20 22 24 25 27 28 28 28 29 28 28 28 28 29 30 32 32 34 34
54 52 53 51 51 49 49 48 46 44 43 39 37 37 36 35 35 33 26 25 24 23 23 22 22 24 25 26 27 27 28 29 30 31 30 30 29 30 31 33 34 33 34
51 52 53 53 53 52 51 50 49 47 45 43 41 40 39 38 33 31 26 24 24 26 27 28 29 30 32 31 31 31 31 32 33 32 32 31 31 31 31 32 31 31 32
52 52 52 53 53 53 53 53 52 50 47 46 43 42 40 36 31 29 27 27 28 28 30 32 33 34 35 34 35 36 36 35 36 35 35 35 35 33 32 31 32 33 36
54 54 53 52 52 52 52 52 52 52 49 46 42 41 37 34 32 32 31 31 32 31 33 35 35 36 38 37 38 40 40 39 37 37 37 37 39 37 36 35 36 38 39
58 56 54 52 52 51 49 48 49 49 45 41 38 37 35 34 35 35 36 36 34 35 36 38 40 41 41 39 39 41 41 40 38 37 37 39 39 39 38 39 40 42 42
60 61 57 55 54 51 49 47 47 46 44 41 39 38 37 37 38 39 39 38 39 39 40 42 44 43 44 43 42 42 43 43 40 40 39 39 40 40 40 41 42 43 44
62 65 61 59 57 55 53 51 49 48 46 44 43 41 41 40 41 43 43 43 43 43 44 46 46 45 45 44 43 45 45 45 45 45 45 45 46 46 48 48 47 47 48
71 67 66 63 60 59 56 54 53 51 49 46 45 43 43 43 45 46 47 47 47 48 48 48 47 46 47 46 47 48 50 51 51 50 48 47 48 48 48 49 49 49 50
63 68 69 67 61 57 58 56 53 52 51 49 47 45 45 46 47 50 51 50 50 50 49 49 49 49 48 49 50 51 52 52 52 51 52 51 50 50 49 49 50 51 51
55 59 66 67 65 62 58 57 55 55 53 52 49 48 48 47 49 52 54 52 51 49 52 51 50 50 52 51 54 54 55 54 54 53 52 51 51 53 54 54 54 54 54
50 56 65 66 61 58 59 58 58 57 56 55 54 51 48 48 51 53 55 54 50 51 51 52 50 53 53 52 54 55 55 55 55 54 54 52 54 54 53 54 55 56 57
33 38 57 70 65 65 62 57 56 58 55 53 51 51 50 51 53 54 54 54 50 49 51 52 51 52 52 52 53 55 57 57 56 56 56 56 56 55 55 56 57 58 58
42 40 48 47 62 68 68 63 60 54 54 55 54 54 53 53 51 51 50 49 49 48 50 51 51 53 49 49 53 54 58 58 58 57 59 58 59 57 59 59 60 61 60
55 56 42 45 44 54 58 56 57 58 58 60 57 56 57 55 51 47 51 50 51 51 52 52 53 51 51 52 55 56 57 57 60 62 61 62 61 61 63 62 62 63 63
67 58 39 35 36 40 49 51 54 63 66 55 56 53 49 51 50 50 53 54 54 54 53 53 55 54 56 58 60 59 59 60 62 61 62 61 63 65 65 65 67 62 61
73 71 54 40 52 50 39 50 53 46 53 54 58 54 58 57 55 59 56 57 55 52 57 56 57 58 62 63 63 61 61 58 57 62 63 65 67 69 68 71 65 66 63
79 70 80 59 76 50 53 58 51 49 50 61 61 58 64 56 55 61 65 65 62 63 52 56 63 68 64 67 64 67 67 67 67 70 70 69 72 74 73 67 68 69 70
99 81 81 76 72 65 53 62 54 44 61 67 67 56 59 62 63 68 67 62 61 62 67 70 75 73 70 68 71 75 74 74 73 74 74 74 72 73 74 70 67 69 74
121 117 106 94 83 76 73 66 64 58 52 60 65 64 61 65 64 59 61 62 66 65 71 76 72 72 71 76 81 82 82 81 83 83 80 78 75 76 72 69 76 78 78
120 125 116 100 92 90 83 76 64 60 49 55 54 60 66 67 64 65 68 70 74 85 63 71 75 79 80 85 86 87 86 85 84 83 80 81 73 72 73 75 77 82 85
110 116 121 117 107 96 90 86 82 78 66 61 59 48 53 60 66 70 60 58 63 73 80 81 81 82 83 83 83 82 82 85 83 84 80 81 79 77 77 80 85 92 95
Wind_Direction
242 245 247 247 251 251 253 252 248 248 249 251 254 259 264 260 269 277 279 280 281 284 288 290 291 293 294 294 295 294 292 294 296 295 291 291 291 288 288 286 285 285 286
238 241 243 246 247 251 249 252 250 251 251 253 254 258 263 265 266 271 275 277 280 283 284 285 288 291 292 293 295 296 296 295 296 297 294 294 292 289 286 287 285 286 287
234 237 240 243 245 243 248 251 252 252 253 254 255 259 262 268 270 271 276 279 281 284 287 285 288 291 294 293 295 297 297 296 295 296 295 294 294 289 286 285 286 287 287
232 234 237 240 241 243 246 247 249 254 254 254 257 261 265 267 271 275 276 280 283 282 283 286 290 291 293 292 293 294 296 295 295 297 298 300 299 291 290 289 287 288 289
232 233 234 238 239 242 243 246 249 250 253 257 258 263 264 267 273 275 274 277 280 283 285 288 291 294 294 296 297 299 298 296 296 298 298 298 295 288 286 286 286 289 290
234 234 233 234 238 239 243 245 247 251 253 254 257 262 265 267 272 273 271 273 280 285 290 295 300 300 298 298 299 299 297 296 296 298 300 301 295 287 283 284 288 290 287
237 238 236 236 236 237 241 244 248 250 254 257 261 262 265 268 263 265 269 273 278 284 290 293 297 298 298 299 299 296 296 297 296 297 299 301 301 294 287 287 286 287 289
234 237 239 238 238 238 238 241 246 249 252 255 257 261 263 261 258 260 264 271 276 283 290 294 295 296 296 298 299 297 295 295 295 296 297 299 302 299 289 284 287 287 292
237 237 238 240 239 239 240 239 243 246 249 254 255 256 255 253 257 263 267 271 276 287 288 290 293 295 295 296 296 296 295 295 295 296 296 297 300 301 295 290 289 292 291
239 239 238 239 240 240 240 239 241 244 247 247 249 250 252 254 261 266 269 274 281 284 286 289 290 291 291 293 294 295 295 294 293 293 293 294 295 296 292 288 287 291 294
238 240 239 238 239 240 241 241 243 244 245 246 247 250 253 256 262 267 272 277 280 283 285 286 289 288 288 286 287 290 291 291 292 291 289 290 292 294 294 291 291 292 294
243 240 240 239 238 239 240 241 242 244 246 249 252 254 255 258 264 269 273 278 280 281 284 286 287 285 286 289 289 287 289 289 289 290 290 290 290 291 293 294 294 296 297
246 244 240 239 240 240 241 241 243 244 246 248 251 254 257 262 266 269 273 278 280 282 283 282 284 287 289 287 284 284 286 289 291 292 293 292 292 294 294 295 296 296 297
244 240 239 239 237 240 240 241 243 245 247 250 252 255 258 263 268 269 272 275 279 280 282 283 280 281 283 284 288 288 289 292 293 293 293 294 294 294 295 297 298 299 300
243 244 238 238 238 238 240 243 245 247 248 251 254 256 260 264 267 270 272 274 277 277 278 279 278 278 279 283 286 288 289 291 292 293 294 294 295 295 296 297 300 301 300
244 251 245 240 239 241 243 245 247 249 251 254 255 258 259 264 267 271 271 272 274 276 277 277 279 281 282 284 286 286 288 290 293 294 295 296 296 296 298 299 300 301 301
226 244 246 242 244 245 244 246 250 249 254 254 255 259 257 265 269 270 270 271 276 276 274 276 278 281 284 286 286 288 289 290 291 291 293 295 295 295 296 296 297 297 297
214 224 243 241 244 244 245 246 247 248 250 255 258 260 266 269 269 269 269 273 274 276 274 274 274 281 285 287 289 289 291 291 291 291 292 294 295 294 295 295 296 298 297
186 204 224 232 236 238 243 248 250 254 255 256 259 262 266 265 266 266 269 267 272 272 273 275 277 280 282 289 290 292 292 292 292 293 293 293 294 294 295 295 297 297 297
187 193 200 220 237 238 241 251 254 253 256 258 261 262 258 262 257 262 267 266 272 273 272 275 278 278 281 288 293 289 290 291 290 290 291 291 294 295 297 297 298 299 297
185 202 192 192 211 233 220 244 257 247 252 259 255 252 261 264 263 264 266 266 273 272 272 271 276 280 283 288 294 289 288 287 287 287 289 293 296 297 297 300 297 298 296
196 201 196 198 204 210 219 233 245 257 252 254 259 248 253 260 263 267 272 274 276 273 271 272 279 285 287 290 289 287 284 284 287 293 291 293 293 296 294 295 296 298 298
209 205 200 202 211 210 217 221 236 246 254 252 260 254 257 263 265 270 272 273 276 277 278 278 280 282 286 290 286 285 284 285 287 290 289 291 292 293 293 291 294 299 301
214 218 215 217 220 220 221 228 232 233 239 247 249 255 261 262 263 264 271 276 275 274 278 279 285 286 283 280 286 285 287 287 287 288 291 292 292 291 290 289 296 304 303
215 217 221 222 220 221 225 222 224 231 240 246 259 264 261 265 268 272 274 274 276 275 275 268 270 273 278 281 283 284 285 287 288 289 292 295 292 292 290 295 300 302 302
216 217 220 224 225 223 226 223 223 229 236 235 249 249 256 255 257 263 275 271 272 265 266 269 271 274 278 281 283 283 284 287 290 289 291 294 293 294 289 293 296 299 302
Height
10846 10849 10852 10855 10856 10859 10861 10862 10864 10865 10866 10867 10868 10869 10870 10871 10872 10873 10874 10874 10875 10875 10875 10875 10875 10875 10875 10874 10874 10873 10872 10871 10869 10868 10866 10865 10863 10861 10859 10857 10856 10855 10853
10840 10843 10846 10848 10851 10853 10856 10857 10859 10860 10861 10862 10864 10865 10866 10868 10869 10869 10870 10870 10871 10872 10872 10872 10871 10871 10871 10870 10869 10868 10867 10866 10865 10863 10862 10860 10859 10857 10855 10852 10851 10849 10846
10832 10836 10839 10843 10845 10847 10849 10852 10853 10854 10856 10858 10860 10861 10862 10863 10864 10865 10865 10865 10866 10867 10867 10867 10866 10866 10865 10864 10864 10863 10862 10861 10860 10859 10858 10856 10854 10852 10850 10848 10846 10843 10841
10825 10829 10832 10836 10839 10841 10843 10846 10847 10849 10851 10853 10855 10856 10857 10859 10860 10860 10860 10860 10861 10861 10862 10862 10862 10861 10860 10859 10859 10859 10857 10856 10855 10853 10852 10850 10848 10846 10844 10842 10840 10837 10835
10817 10821 10825 10829 10832 10835 10837 10839 10841 10844 10846 10848 10850 10851 10853 10854 10854 10855 10856 10856 10856 10856 10856 10857 10857 10857 10855 10855 10854 10853 10851 10850 10849 10848 10847 10845 10843 10841 10839 10837 10834 10832 10829
10809 10814 10817 10821 10824 10828 10830 10832 10835 10838 10840 10843 10845 10846 10848 10849 10850 10850 10851 10851 10852 10852 10852 10852 10853 10852 10850 10850 10850 10849 10846 10845 10843 10842 10841 10839 10838 10836 10834 10831 10829 10826 10824
10804 10808 10810 10814 10817 10821 10824 10826 10829 10832 10834 10837 10839 10841 10842 10844 10844 10845 10846 10847 10847 10847 10847 10848 10847 10846 10844 10845 10844 10842 10841 10840 10837 10836 10835 10833 10831 10830 10828 10826 10823 10820 10818
10797 10800 10804 10808 10810 10814 10818 10821 10823 10825 10828 10831 10834 10835 10837 10838 10839 10840 10840 10842 10843 10843 10843 10842 10842 10841 10837 10840 10838 10836 10834 10834 10831 10830 10828 10827 10825 10824 10822 10820 10818 10815 10813
10790 10793 10798 10802 10804 10807 10811 10814 10817 10820 10823 10825 10827 10829 10831 10832 10834 10834 10835 10837 10837 10838 10838 10837 10836 10835 10832 10833 10832 10829 10828 10826 10826 10824 10822 10820 10818 10816 10815 10813 10811 10809 10806
10783 10786 10790 10795 10797 10801 10805 10808 10811 10814 10817 10820 10822 10824 10826 10827 10828 10829 10830 10831 10832 10832 10831 10830 10829 10829 10826 10826 10825 10823 10821 10820 10819 10817 10815 10813 10811 10809 10808 10806 10803 10800 10797
10774 10778 10783 10787 10790 10795 10799 10802 10805 10809 10811 10814 10816 10818 10820 10821 10822 10823 10824 10825 10825 10825 10824 10824 10822 10822 10820 10819 10817 10816 10814 10812 10811 10809 10807 10805 10803 10801 10799 10797 10795 10792 10789
10763 10767 10775 10779 10783 10788 10792 10795 10798 10802 10805 10808 10810 10812 10814 10815 10815 10815 10817 10818 10818 10818 10817 10817 10816 10814 10812 10812 10810 10807 10806 10804 10802 10801 10799 10797 10795 10793 10790 10788 10786 10783 10780
10750 10755 10764 10768 10774 10780 10783 10787 10790 10794 10797 10800 10801 10804 10806 10807 10807 10806 10808 10809 10810 10810 10809 10808 10808 10807 10805 10804 10802 10799 10798 10796 10795 10793 10791 10789 10787 10785 10783 10780 10777 10774 10772
10741 10745 10751 10756 10764 10769 10774 10778 10781 10785 10788 10791 10793 10795 10798 10799 10799 10798 10799 10800 10801 10801 10801 10800 10800 10799 10796 10794 10795 10793 10791 10789 10786 10785 10783 10780 10778 10776 10774 10771 10768 10765 10762
10737 10736 10739 10746 10754 10758 10764 10768 10772 10775 10779 10781 10784 10786 10789 10791 10790 10789 10789 10790 10791 10792 10792 10792 10791 10790 10789 10787 10785 10785 10782 10780 10778 10776 10774 10772 10769 10766 10764 10761 10758 10755 10752
10725 10728 10730 10738 10746 10750 10754 10759 10763 10767 10769 10771 10775 10778 10780 10780 10781 10781 10780 10780 10782 10781 10782 10782 10782 10781 10780 10780 10777 10774 10773 10770 10769 10766 10763 10761 10759 10756 10754 10751 10748 10745 10742
10711 10715 10722 10730 10737 10742 10745 10750 10755 10758 10760 10762 10765 10767 10769 10770 10770 10771 10771 10770 10772 10773 10772 10772 10773 10771 10771 10770 10768 10764 10763 10761 10758 10755 10753 10750 10748 10746 10743 10741 10738 10734 10730
10703 10712 10714 10720 10723 10729 10735 10741 10746 10748 10750 10753 10754 10756 10758 10760 10761 10761 10762 10762 10762 10763 10762 10763 10763 10763 10762 10759 10758 10755 10752 10750 10747 10745 10742 10740 10737 10734 10732 10729 10726 10722 10718
10687 10696 10703 10707 10715 10721 10727 10731 10735 10739 10741 10742 10745 10746 10746 10748 10750 10751 10751 10751 10752 10753 10753 10753 10752 10751 10751 10749 10748 10745 10742 10738 10735 10733 10731 10729 10725 10723 10719 10716 10713 10710 10706
10673 10685 10690 10703 10712 10715 10719 10723 10726 10727 10730 10733 10735 10735 10734 10735 10738 10739 10739 10740 10742 10743 10742 10743 10741 10739 10738 10737 10736 10734 10731 10728 10725 10720 10718 10716 10713 10711 10707 10703 10700 10696 10693
10656 10669 10681 10683 10702 10709 10703 10710 10716 10715 10720 10721 10721 10723 10722 10724 10726 10727 10728 10729 10731 10733 10732 10730 10730 10728 10726 10724 10724 10721 10718 10715 10712 10708 10706 10703 10700 10696 10693 10689 10686 10683 10679
10647 10654 10664 10669 10681 10696 10697 10704 10704 10704 10706 10708 10709 10709 10710 10713 10715 10717 10718 10718 10720 10719 10721 10718 10717 10716 10713 10711 10708 10708 10704 10700 10699 10697 10694 10690 10686 10682 10678 10675 10671 10668 10663
10633 10640 10650 10658 10667 10674 10676 10686 10694 10689 10694 10695 10697 10696 10701 10704 10703 10705 10707 10708 10707 10707 10706 10704 10702 10701 10698 10695 10694 10692 10690 10688 10686 10681 10679 10676 10671 10666 10662 10659 10656 10653 10649
10615 10626 10638 10646 10655 10665 10670 10679 10681 10677 10681 10682 10684 10688 10691 10692 10692 10692 10694 10695 10694 10693 10692 10690 10687 10684 10685 10681 10679 10676 10675 10672 10668 10665 10663 10661 10656 10651 10645 10642 10640 10634 10629
10605 10614 10624 10635 10647 10652 10653 10660 10663 10666 10671 10677 10679 10680 10681 10680 10678 10679 10681 10681 10679 10679 10676 10673 10673 10671 10668 10665 10664 10662 10658 10656 10652 10650 10647 10644 10639 10636 10631 10626 10621 10617 10613
10594 10605 10613 10622 10633 10636 10644 10651 10654 10659 10663 10669 10668 10665 10665 10668 10668 10670 10668 10665 10666 10661 10657 10659 10656 10655 10653 10651 10647 10645 10642 10639 10635 10633 10630 10629 10625 10619 10614 10610 10604 10599 10592